Location: ??????-???
(48.4261°N, 37.7652°E)
Time: 20:53:56
(UTC+00:00)

Cosmos 1825 - Pass Details

Date: 07 June 2020
Orbit: 504 x 507 km, 82.5° (Epoch: 06 July)

Event Time Altitude Azimuth Distance (km) Brightness Sun altitude
Exits shadow 00:20:35 - 185° (S) 1,903 4.6 -9.0°
Reaches altitude 10° 00:21:03 10° 185° (S) 1,712 4.3 -9.0°
Maximum altitude 00:24:48 81° 99° (E) 518 2.2 -8.6°
Drops below altitude 10° 00:28:35 10° 11° (NNE) 1,728 5.9 -8.1°
Sets 00:30:43 0° 11° (N) 2,618 6.9 -7.9°
